DECAYED

IRIDIUM 33 DEB, 34693 (Decayed)

Orbit data source: Space-Track

IRIDIUM 33 DEB, 34693 was space debris in LEO originally from a launch on Sun, 14 Sep 1997 UTC launched from the Tyuratam Missile And Space Complex (TTMTR). The debris from Iridium 33, an American commercial communications satellite, has been tracked extensively since its accidental collision with the defunct Russian satellite Cosmos 2251 in 2009. This event, occurring at high speed in low Earth orbit (LEO), generated thousands of pieces of space debris, significantly increasing the risk of further collisions. The Iridium 33 debris cloud has impacted space traffic management and orbital debris mitigation strategies, making it a subject of ongoing study in space situational awareness.

Loading next visibility...
Identifier
34693, 1997-051KQ
Orbit
Decayed
Country
Flag of USUS
Related business
Manufacturer
Unknown
Mission
Decayed spacecraft
Bus & Motor
Unknown
Mass
Unknown
Launch date (UTC)
1997-09-14 (29 years ago)
Launch vehicle
Unknown
Launch site
Tyuratam Missile And Space Complex (TTMTR)
Object type
Payload
Rocket body
Debris
Shape & HBR
Unknown shape, 0.1 m
Radar Cross Section
Small (<0.1 m²)

Expand to show TLE details & history
Last TLE update: 2 months ago

TLE from 2 months ago
0 IRIDIUM 33 DEB
1 34693U 97051KQ  26061.03015628  .05809966  79145-1  11096-1 0  9995
2 34693  86.2718 263.1579 0007217 319.8641  40.2115 16.06226031901416
Epoch: 2026-03-02T00:43Z
TLE epoch observation values (Epoch: 2026-03-02T00:43:25.502Z)
Latitude
0.00001°
Longitude
92.47222°
Altitude
256.849 km
Speed
7.755 km/s
True Right ascension
17h 32m 37s
True Declination
0° 00' 00"
Sunlit
Object was in daylight at epoch
Visualization orbit readout
Latitude
Unknown
Longitude
Unknown
Altitude
Unknown
Speed
Unknown
Apparent Right ascension
Unknown
Apparent Declination
Unknown
Sunlit
N/A
Visualization observer readout
Local Sidereal Time
09:15:51
Azimuth
Unknown
Elevation
Unknown
Doppler factor
Unknown
Orbital elements
Apogee altitude
258.732 km
Perigee altitude
249.159 km
Semi-major axis
6,632.082 km
Eccentricity
0.00072
Inclination
86.2718°
RAAN
263.1579°
Arg. of periapsis
319.8641°
True anomaly
40.26493°
Mean anomaly
40.2115°
Eccentric anomaly
40.23821°
Mean motion
4.01854 °/min
Orbital period
89.58 mins
BSTAR
0.011096

Documentation

Showing up to 5 results
|